College Station, TX

2:46 AM CST on February 24, 2017 (GMT -0600)
Easterwood

Weather History for KCLL - March, 2013

Change the Weather History Date:

Saturday, March 9, 2013

  Actual Average Record
Temperature  
Mean Temperature 68 °F 60 °F  
Max Temperature 76 °F 70 °F 92 °F (1911)
Min Temperature 60 °F 50 °F 25 °F (1932)
Degree Days  
Heating Degree Days 0 7  
Month to date heating degree days 82 68  
Since 1 July heating degree days 1141 1455  
Cooling Degree Days 3 1  
Month to date cooling degree days 7 9  
Year to date cooling degree days 42 37  
Growing Degree Days 18 (Base 50)    
Moisture  
Dew Point 60 °F    
Average Humidity 75    
Maximum Humidity 90    
Minimum Humidity 60    
Precipitation  
Precipitation 0.00 in 0.10 in 3.09 in (2015)
Month to date precipitation 0.00 0.91  
Year to date precipitation 6.16 7.00  
Sea Level Pressure  
Sea Level Pressure 29.88 in    
Wind  
Wind Speed 16 mph (SSE)    
Max Wind Speed 26 mph    
Max Gust Speed 36 mph    
Visibility 10 miles    
Events      
T = Trace of Precipitation, MM = Missing Value Source: NWS Daily Summary

Daily Weather History Graph

Daily Weather History Graph

Search for Another Location

Airport or City:

Trip Planner

Search our weather history database for the weather conditions in past years. The results will help you decide how hot, cold, wet, or windy it might be!

Date:

Astronomy

Mar. 09, 2013 Rise Set
Actual Time 6:42 AM CST 6:29 PM CST
Civil Twilight 6:18 AM CST 6:53 PM CST
Nautical Twilight 5:50 AM CST 7:21 PM CST
Astronomical Twilight 5:22 AM CST 7:49 PM CST
Moon 4:59 AM CST (3/9) 4:38 PM CST (3/9)
Length of Visible Light 12h 35m
Length of Day
11h 47m
Waning Crescent, 5% of the Moon is Illuminated
Mar 9
Waning Crescent
Mar 11
New
Mar 19
First Quarter
Mar 27
Full
Apr 2
Last Quarter

Hourly Weather History & Observations

Time (CST) Temp. Dew Point Humidity Pressure Visibility Wind Dir Wind Speed Gust Speed Precip Events Conditions
12:00 AM 60.8 °F 55.4 °F 82% 30.06 in 10.0 mi SSE 9.2 mph - N/A   Mostly Cloudy
12:53 AM 61.0 °F 57.0 °F 87% 30.05 in 10.0 mi SSE 10.4 mph - N/A   Overcast
1:53 AM 61.0 °F 57.0 °F 87% 30.01 in 10.0 mi SSE 10.4 mph - N/A   Overcast
2:20 AM 60.8 °F 57.2 °F 88% 30.00 in 10.0 mi SE 11.5 mph - N/A   Overcast
2:53 AM 61.0 °F 57.0 °F 87% 29.98 in 10.0 mi SSE 11.5 mph - N/A   Overcast
3:21 AM 60.8 °F 57.2 °F 88% 29.97 in 10.0 mi SE 9.2 mph - N/A   Scattered Clouds
3:53 AM 61.0 °F 57.9 °F 90% 29.95 in 10.0 mi SE 11.5 mph - N/A   Mostly Cloudy
4:46 AM 62.6 °F 57.2 °F 82% 29.96 in 10.0 mi SE 9.2 mph - N/A   Overcast
4:53 AM 62.1 °F 57.9 °F 86% 29.94 in 10.0 mi SE 10.4 mph - N/A   Overcast
5:35 AM 62.6 °F 59.0 °F 88% 29.94 in 10.0 mi SE 12.7 mph - N/A   Overcast
5:53 AM 63.0 °F 59.0 °F 87% 29.94 in 10.0 mi SSE 11.5 mph - N/A   Overcast
6:53 AM 64.0 °F 60.1 °F 87% 29.94 in 10.0 mi SSE 12.7 mph - N/A   Overcast
7:53 AM 64.0 °F 60.1 °F 87% 29.94 in 10.0 mi SSE 11.5 mph - N/A   Overcast
8:09 AM 64.4 °F 60.8 °F 88% 29.95 in 10.0 mi SE 13.8 mph - N/A   Overcast
8:53 AM 66.9 °F 62.1 °F 84% 29.94 in 10.0 mi South 12.7 mph - N/A   Overcast
9:27 AM 69.8 °F 62.6 °F 78% 29.94 in 10.0 mi SSE 20.7 mph 27.6 mph N/A   Overcast
9:53 AM 71.1 °F 62.1 °F 73% 29.92 in 10.0 mi South 20.7 mph - N/A   Mostly Cloudy
10:07 AM 71.6 °F 62.6 °F 73% 29.93 in 10.0 mi SSE 20.7 mph 28.8 mph N/A   Scattered Clouds
10:53 AM 73.0 °F 62.1 °F 68% 29.90 in 10.0 mi South 24.2 mph 32.2 mph N/A   Overcast
11:19 AM 73.4 °F 62.6 °F 69% 29.90 in 10.0 mi South 17.3 mph 26.5 mph N/A   Overcast
11:53 AM 73.9 °F 62.1 °F 66% 29.88 in 10.0 mi South 21.9 mph 29.9 mph N/A   Overcast
12:00 PM 73.4 °F 62.6 °F 69% 29.88 in 10.0 mi SSE 24.2 mph 29.9 mph N/A   Overcast
12:53 PM 73.9 °F 61.0 °F 64% 29.84 in 10.0 mi South 21.9 mph 31.1 mph N/A   Overcast
1:53 PM 75.0 °F 61.0 °F 62% 29.81 in 10.0 mi South 15.0 mph 23.0 mph N/A   Overcast
2:53 PM 75.9 °F 62.1 °F 62% 29.79 in 10.0 mi SSE 16.1 mph 26.5 mph N/A   Overcast
3:53 PM 75.9 °F 61.0 °F 60% 29.77 in 10.0 mi SSE 15.0 mph - N/A   Overcast
4:53 PM 75.0 °F 61.0 °F 62% 29.74 in 10.0 mi South 21.9 mph 35.7 mph N/A   Overcast
5:53 PM 73.0 °F 61.0 °F 66% 29.76 in 10.0 mi SSE 21.9 mph 29.9 mph N/A   Overcast
6:53 PM 72.0 °F 60.1 °F 66% 29.75 in 10.0 mi South 23.0 mph 29.9 mph N/A   Overcast
7:27 PM 71.6 °F 60.8 °F 69% 29.76 in 10.0 mi South 17.3 mph 26.5 mph N/A   Overcast
7:53 PM 71.1 °F 61.0 °F 70% 29.75 in 10.0 mi SSE 18.4 mph 27.6 mph N/A   Overcast
8:41 PM 69.8 °F 60.8 °F 73% 29.76 in 10.0 mi South 15.0 mph 25.3 mph N/A   Overcast
8:53 PM 70.0 °F 60.1 °F 71% 29.75 in 10.0 mi South 20.7 mph 25.3 mph N/A   Overcast
9:53 PM 69.1 °F 61.0 °F 75% 29.74 in 10.0 mi SSE 18.4 mph 27.6 mph N/A   Overcast
10:53 PM 69.1 °F 61.0 °F 75% 29.73 in 10.0 mi SE 17.3 mph 26.5 mph N/A   Overcast
11:14 PM 69.8 °F 60.8 °F 73% 29.75 in 10.0 mi SE 16.1 mph - N/A   Overcast
11:53 PM 69.1 °F 62.1 °F 78% 29.76 in 10.0 mi SSE 13.8 mph 19.6 mph N/A   Overcast